{"data":{"norad_id":49218,"epoch":"2026-09-19T21:29:54.947040Z","epoch_age_seconds":60023,"freshness":"FRESH","line1":"1 49218U 21083AJ  26262.89577485 -.00000076  00000+0 -24184-3 0  9995","line2":"2 49218  87.8917 301.3881 0001645  93.2107 266.9210 13.13469102243339","mean_motion":13.13469102,"eccentricity":0.0001645,"inclination_deg":87.8917,"raan_deg":301.3881,"arg_perigee_deg":93.2107,"mean_anomaly_deg":266.921,"bstar":-0.00024184,"rev_number":24333,"period_min":109.63333646809,"perigee_km":1208.5206478796,"apogee_km":1211.017068907,"semimajor_km":7587.9058583933,"source":"CELESTRAK","updated_at":"2026-09-20T09:00:44.667488Z"}}